Weather History for Pipestone, MN

Change the Weather History Date:

Monday, May 13, 2013

  Actual Average Record
Temperature  
Mean Temperature 64 °F -  
Max Temperature 84 °F 64 °F 89 °F (2007)
Min Temperature 44 °F 43 °F 24 °F (1997)
Degree Days  
Heating Degree Days 1    
Growing Degree Days 14 (Base 50)    
Moisture  
Dew Point 37 °F    
Average Humidity 37    
Maximum Humidity 52    
Minimum Humidity 25    
Precipitation  
Precipitation 0.00 in - - ()
Sea Level Pressure  
Sea Level Pressure 29.90 in    
Wind  
Wind Speed 12 mph (SW)    
Max Wind Speed 26 mph    
Max Gust Speed 31 mph    
Visibility 10 miles    
Events      
Averages and records for this station are not official NWS values.
T = Trace of Precipitation, MM = Missing Value Source: NWS Daily Summary

Daily Weather History Graph

Daily Weather History Graph

Search for Another Location

Airport:

Trip Planner

Search our weather history database for the weather conditions in past years. The results will help you decide how hot, cold, wet, or windy it might be!

Date:

Astronomy

May. 13, 2013 Rise Set
Actual Time 6:01 AM CDT 8:42 PM CDT
Civil Twilight 5:27 AM CDT 9:15 PM CDT
Nautical Twilight 4:46 AM CDT 9:57 PM CDT
Astronomical Twilight 3:58 AM CDT 10:46 PM CDT
Moon 8:47 AM CDT (5/13) 11:52 PM CDT (5/13)
Length of Visible Light 15h 48m
Length of Day
14h 41m
Waxing Crescent, 12% of the Moon is Illuminated
May 13
Waxing Crescent
May 17
First Quarter
May 24
Full
May 31
Last Quarter
Jun 8
New

Hourly Weather History & Observations

Time (CDT) Temp. Windchill Dew Point Humidity Pressure Visibility Wind Dir Wind Speed Gust Speed Precip Events Conditions
12:13 AM 51.8 °F - 21.2 °F 30% 30.08 in 10.0 mi SSE 4.6 mph - N/A   Clear
12:33 AM 50.0 °F - 26.6 °F 40% 30.08 in 10.0 mi SE 4.6 mph - N/A   Clear
12:53 AM 50.0 °F - 26.6 °F 40% 30.08 in 10.0 mi SSE 5.8 mph - N/A   Clear
1:13 AM 50.0 °F - 24.8 °F 37% 30.08 in 10.0 mi SSE 5.8 mph - N/A   Clear
1:33 AM 50.0 °F - 21.2 °F 32% 30.07 in 10.0 mi SSE 8.1 mph - N/A   Clear
1:53 AM 50.0 °F - 21.2 °F 32% 30.06 in 10.0 mi South 9.2 mph - N/A   Clear
2:13 AM 50.0 °F - 21.2 °F 32% 30.06 in 10.0 mi South 9.2 mph - N/A   Clear
2:33 AM 51.8 °F - 21.2 °F 30% 30.06 in 10.0 mi South 9.2 mph - N/A   Clear
2:53 AM 50.0 °F - 21.2 °F 32% 30.06 in 10.0 mi South 8.1 mph - N/A   Clear
3:13 AM 48.2 °F - 24.8 °F 40% 30.05 in 10.0 mi South 9.2 mph - N/A   Clear
3:33 AM 48.2 °F - 24.8 °F 40% 30.04 in 10.0 mi South 8.1 mph - N/A   Clear
3:53 AM 48.2 °F - 24.8 °F 40% 30.04 in 10.0 mi SSE 6.9 mph - N/A   Clear
4:13 AM 48.2 °F - 24.8 °F 40% 30.05 in 10.0 mi South 8.1 mph - N/A   Clear
4:33 AM 44.6 °F 39.7 °F 26.6 °F 49% 30.04 in 10.0 mi South 9.2 mph - N/A   Clear
4:54 AM 44.6 °F 39.2 °F 26.6 °F 49% 30.02 in 10.0 mi South 10.4 mph - N/A   Clear
5:13 AM 46.4 °F 41.5 °F 26.6 °F 46% 30.02 in 10.0 mi South 10.4 mph - N/A   Clear
5:33 AM 46.4 °F 41.5 °F 24.8 °F 43% 30.02 in 10.0 mi South 10.4 mph - N/A   Clear
5:54 AM 46.4 °F 40.7 °F 24.8 °F 43% 30.01 in 10.0 mi South 12.7 mph - N/A   Clear
6:13 AM 48.2 °F - 23.0 °F 37% 30.00 in 10.0 mi South 13.8 mph 18.4 mph N/A   Clear
6:33 AM 48.2 °F - 24.8 °F 40% 30.01 in 10.0 mi South 15.0 mph - N/A   Clear
6:54 AM 48.2 °F - 24.8 °F 40% 30.00 in 10.0 mi South 15.0 mph - N/A   Clear
7:13 AM 50.0 °F - 23.0 °F 35% 29.99 in 10.0 mi South 17.3 mph 23.0 mph N/A   Clear
7:33 AM 51.8 °F - 24.8 °F 35% 29.99 in 10.0 mi South 16.1 mph - N/A   Clear
7:54 AM 53.6 °F - 28.4 °F 38% 30.00 in 10.0 mi South 17.3 mph - N/A   Scattered Clouds
8:13 AM 53.6 °F - 30.2 °F 41% 29.99 in 10.0 mi South 16.1 mph - N/A   Scattered Clouds
8:33 AM 55.4 °F - 33.8 °F 44% 29.98 in 10.0 mi South 18.4 mph - N/A   Scattered Clouds
8:53 AM 55.4 °F - 33.8 °F 44% 29.97 in 10.0 mi South 19.6 mph - N/A   Clear
9:13 AM 57.2 °F - 35.6 °F 44% 29.96 in 10.0 mi South 17.3 mph 21.9 mph N/A   Scattered Clouds
9:33 AM 57.2 °F - 37.4 °F 48% 29.95 in 10.0 mi South 18.4 mph - N/A   Scattered Clouds
9:53 AM 59.0 °F - 37.4 °F 45% 29.95 in 10.0 mi South 18.4 mph 23.0 mph N/A   Clear
10:13 AM 62.6 °F - 39.2 °F 42% 29.93 in 10.0 mi South 19.6 mph 25.3 mph N/A   Clear
10:33 AM 62.6 °F - 39.2 °F 42% 29.93 in 10.0 mi SSW 20.7 mph 26.5 mph N/A   Clear
10:54 AM 64.4 °F - 41.0 °F 42% 29.92 in 10.0 mi SSW 23.0 mph 26.5 mph N/A   Clear
11:13 AM 64.4 °F - 41.0 °F 42% 29.91 in 10.0 mi SSW 23.0 mph 26.5 mph N/A   Clear
11:33 AM 66.2 °F - 42.8 °F 43% 29.89 in 10.0 mi SSW 23.0 mph 28.8 mph N/A   Clear
11:53 AM 69.8 °F - 44.6 °F 40% 29.88 in 10.0 mi SSW 24.2 mph - N/A   Clear
12:13 PM 69.8 °F - 42.8 °F 38% 29.86 in 10.0 mi SSW 26.5 mph 29.9 mph N/A   Clear
12:33 PM 71.6 °F - 44.6 °F 38% 29.85 in 10.0 mi SSW 24.2 mph 31.1 mph N/A   Clear
12:53 PM 73.4 °F - 44.6 °F 36% 29.85 in 10.0 mi SSW 21.9 mph 29.9 mph N/A   Clear
1:13 PM 73.4 °F - 44.6 °F 36% 29.84 in 10.0 mi SSW 23.0 mph 26.5 mph N/A   Clear
1:33 PM 73.4 °F - 44.6 °F 36% 29.83 in 10.0 mi SSW 24.2 mph 28.8 mph N/A   Clear
1:53 PM 75.2 °F - 44.6 °F 34% 29.83 in 10.0 mi SW 23.0 mph - N/A   Clear
2:13 PM 75.2 °F - 44.6 °F 34% 29.83 in 10.0 mi SW 23.0 mph 29.9 mph N/A   Clear
2:34 PM 78.8 °F - 44.6 °F 30% 29.82 in 10.0 mi SW 20.7 mph 25.3 mph N/A   Scattered Clouds
3:33 PM 80.6 °F - 46.4 °F 30% 29.80 in 10.0 mi WSW 20.7 mph 28.8 mph N/A   Clear
3:53 PM 80.6 °F - 46.4 °F 30% 29.79 in 10.0 mi WSW 23.0 mph 27.6 mph N/A   Clear
4:13 PM 82.4 °F - 46.4 °F 28% 29.79 in 10.0 mi WSW 23.0 mph 28.8 mph N/A   Clear
4:33 PM 82.4 °F - 46.4 °F 28% 29.79 in 10.0 mi West 17.3 mph 26.5 mph N/A   Clear
4:53 PM 84.2 °F - 46.4 °F 27% 29.78 in 10.0 mi West 15.0 mph 21.9 mph N/A   Clear
5:13 PM 84.2 °F - 46.4 °F 27% 29.77 in 10.0 mi West 12.7 mph - N/A   Clear
5:33 PM 84.2 °F - 46.4 °F 27% 29.77 in 10.0 mi WNW 15.0 mph 21.9 mph N/A   Clear
5:53 PM 84.2 °F - 44.6 °F 25% 29.76 in 10.0 mi WNW 12.7 mph - N/A   Clear
6:33 PM 84.2 °F - 44.6 °F 25% 29.75 in 10.0 mi West 11.5 mph 20.7 mph N/A   Clear
7:13 PM 84.2 °F - 44.6 °F 25% 29.74 in 10.0 mi West 13.8 mph - N/A   Clear
7:33 PM 82.4 °F - 44.6 °F 26% 29.74 in 10.0 mi West 11.5 mph - N/A   Clear
7:53 PM 82.4 °F - 46.4 °F 28% 29.74 in 10.0 mi West 10.4 mph - N/A   Clear
8:13 PM 80.6 °F - 46.4 °F 30% 29.74 in 10.0 mi West 9.2 mph - N/A   Clear
8:33 PM 78.8 °F - 46.4 °F 32% 29.74 in 10.0 mi West 6.9 mph - N/A   Clear
8:53 PM 75.2 °F - 46.4 °F 36% 29.75 in 10.0 mi West 6.9 mph - N/A   Clear
9:13 PM 73.4 °F - 44.6 °F 36% 29.75 in 10.0 mi West 6.9 mph - N/A   Clear
9:33 PM 71.6 °F - 44.6 °F 38% 29.75 in 10.0 mi WNW 5.8 mph - N/A   Clear
9:53 PM 69.8 °F - 44.6 °F 40% 29.76 in 10.0 mi West 8.1 mph - N/A   Clear
10:13 PM 69.8 °F - 44.6 °F 40% 29.76 in 10.0 mi WNW 8.1 mph - N/A   Clear
10:33 PM 69.8 °F - 44.6 °F 40% 29.77 in 10.0 mi WNW 6.9 mph - N/A   Clear
10:53 PM 69.8 °F - 44.6 °F 40% 29.77 in 10.0 mi WNW 5.8 mph - N/A   Clear
11:13 PM 68.0 °F - 44.6 °F 43% 29.77 in 10.0 mi WNW 5.8 mph - N/A   Clear
11:33 PM 66.2 °F - 44.6 °F 46% 29.77 in 10.0 mi West 5.8 mph - N/A   Clear
11:53 PM 62.6 °F - 44.6 °F 52% 29.77 in 10.0 mi West 4.6 mph - N/A   Clear